Regional Weather Roundup
Issued by NWS Charleston, SC

Current Version | Previous Version | Text Only | Print | Product List | Glossary Off
Versions: 1 2 3 4 5 6 7 8 9 10 11 12 13 14 15 16 17 18 19 20 21 22 23 24 25 26 27 28 29 30 31 32 33 34 35 36 37 38 39 40 41 42 43 44 45 46 47 48 49 50

000
ASUS42 KCHS 270612
RWRCHS

REGIONAL WEATHER ROUNDUP
NATIONAL WEATHER SERVICE CHARLESTON SC
200 AM EDT MON APR 27 2015

NOTE: "FAIR" INDICATES FEW OR NO CLOUDS BELOW 12,000 FEET WITH NO
SIGNIFICANT WEATHER AND/OR OBSTRUCTIONS TO VISIBILITY.

NOT ALL STATIONS ARE QUALITY CONTROLLED BY THE NATIONAL
WEATHER SERVICE. USE DATA WITH CAUTION...ESPECIALLY
DEWPOINT OBSERVATIONS.

SCZ027-030-031-034>040-042>050-270700-
...SOUTHEAST SOUTH CAROLINA...

CITY           SKY/WX    TMP DP  RH WIND       PRES   REMARKS
N CHARLESTON   CLOUDY    56  52  86 N12G18    29.74F
6HR MIN TEMP:  56; 6HR MAX TEMP:  71; 6HR PCP: TRACE;

WATERFRONT PRK   N/A     59 N/A N/A N16         N/A
MOUNT PLEASANT CLOUDY    55  54  94 MISG      29.74F
PINOPOLIS      NOT AVBL
MONCKS CORNER  FAIR      55  50  82 NE9       29.76F
SUMMERVILLE    CLOUDY    55  55 100 N6        29.77S
BEAUFORT MCAS  CLOUDY    63  57  81 NE10      29.73R
6HR MIN TEMP:  63; 6HR MAX TEMP:  79;

BEAUFORT ARPT  NOT AVBL
HILTON HEAD IS CLOUDY    66  61  82 N10       29.72S
WALTERBORO     CLOUDY    55  54  94 NE8       29.76S
ALLENDALE      CLOUDY    57  54  88 VRB3      29.75S

...SOUTHERN MIDLANDS AND PEE DEE...

CITY           SKY/WX    TMP DP  RH WIND       PRES   REMARKS
GEORGETOWN     NOT AVBL
KINGSTREE      NOT AVBL
ORANGEBURG     PTCLDY    54  49  83 NE8       29.78S
6HR MIN TEMP:  54; 6HR MAX TEMP:  65; 6HR PCP: TRACE;

BARNWELL       FAIR      55  52  88 NE9       29.77S
AIKEN          MOCLDY    54  45  71 NE12      29.81S
MANNING        CLOUDY    52  41  66 N6        29.77S
COLUMBIA       MOCLDY    55  47  74 NE5       29.78F
6HR MIN TEMP:  55; 6HR MAX TEMP:  62;

SUMTER         PTCLDY    52  48  86 NE7       29.76F
6HR MIN TEMP:  52; 6HR MAX TEMP:  58;

FLORENCE       CLOUDY    53  48  83 NE3       29.78F
6HR MIN TEMP:  53; 6HR MAX TEMP:  56; 6HR PCP: TRACE;

MYRTLE BEACH   CLOUDY    54  48  82 N8        29.78F
N MYRTLE BEACH CLOUDY    53  50  89 N6        29.75F
6HR MIN TEMP:  53; 6HR MAX TEMP:  57; 6HR PCP:  0.12;


$$

GAZ063-065-086>088-099>101-113>116-118-119-134>141-150-270700-
...SOUTHEAST GEORGIA...

CITY           SKY/WX    TMP DP  RH WIND       PRES   REMARKS
SAVANNAH ARPT  MOCLDY    64  59  82 NE9       29.72R
6HR MIN TEMP:  65; 6HR MAX TEMP:  78;

HUNTER AAF     MOCLDY    67  64  88 NE8       29.69R
6HR MIN TEMP:  67; 6HR MAX TEMP:  77;

FORT STEWART   MOCLDY    72  59  63 N10       29.68R
6HR MIN TEMP:  71; 6HR MAX TEMP:  81;

STATESBORO       N/A     61  57  87 NE8       29.74R
SYLVANIA       CLOUDY    60  57  91 NE6       29.75S
CLAXTON        FAIR      64  61  88 NE9       29.73R

...CSRA...CENTRAL AND FAR SOUTHEAST GEORGIA...

CITY           SKY/WX    TMP DP  RH WIND       PRES   REMARKS
THOMSON        PTCLDY    58  55  87 CALM      29.83S
AUGUSTA-BUSH   LGT RAIN  57  50  77 NE10      29.78R
6HR MIN TEMP:  57; 6HR MAX TEMP:  78; 6HR PCP:  0.01;

AUGUSTA-DANIEL CLOUDY    59  48  67 NE13      29.78S
SWAINSBORO     NOT AVBL
VIDALIA        MOCLDY    70  61  73 NE8       29.72R
EASTMAN        FAIR      69  61  75 N5        29.75S
HAZLEHURST     FAIR      71  63  76 CALM      29.70S
ALMA           MOCLDY    71  63  75 SW3       29.69F
6HR MIN TEMP:  71; 6HR MAX TEMP:  80;

WAYCROSS       MOCLDY    76  72  86 W6        29.69F
JESUP          FAIR      72  66  83 CALM      29.69S
BAXLEY         FAIR      73  64  73 CALM      29.69R
BRUNSWICK      MOCLDY    73  64  73 W8        29.69S
SAINT SIMONS   MOCLDY    74  67  78 W6        29.68S
6HR MIN TEMP:  74; 6HR MAX TEMP:  83;


$$

SCZ027-028-034-036>038-045-046-048>050-GAZ119-141-270700-
...LAKE AND SUPPLEMENTAL COASTAL OBSERVATIONS...

STATION/POSITION TIME  TEMP    WIND        PRES    WAVE   SWELL
                       AIR SEA DIR/SP/G            HT/PER HT/PER/DIR
                 (UTC) (F)     (DEG/KT/KT) (MB)    (FT/S) (FT/S/D)
UPR LAKE MARION  NOT AVBL
WINYAH BAY       NOT AVBL
LAKE MURRAY      0500   54      10/  3/  5 1008.8R
ACE BASIN NERRS  NOT AVBL
FORT PULASKI     0500   68 70   40/ 15/ 23 1006.2R
SAPELO ISLAND    0500   72     210/  4     1005.0S

$$

ANZ835-935-AMZ111-154-330-350-352-354-370-450-454-472-270700-
...C-MAN AND BUOY OBSERVATIONS...

STATION/POSITION TIME  TEMP    WIND        PRES    WAVE   SWELL
                       AIR SEA DIR/SP/G            HT/PER HT/PER/DIR
                 (UTC) (F)     (DEG/KT/KT) (MB)    (FT/S) (FT/S/D)
BUOY 41004       0550   65 71   30/ 17/ 21 1005.1F   5/ 6
BUOY 41008       0550   74 71  240/ 12/ 14 1004.6F   1/ 5
FOLLY BEACH CMAN 0600   59      20/ 11/ 14 1006.7F
CAPERS NEARSHORE 0508   60      40/ 17/ 23 1007.5R
FRIPP NEARSHORE  0500   67      60/ 17/ 21 1005.8R


STATION/POSITION TIME  TEMP    WIND        PRES    WAVE   SWELL
                       AIR SEA DIR/SP/G            HT/PER HT/PER/DIR
                 (UTC) (F)     (DEG/KT/KT) (MB)    (FT/S) (FT/S/D)
5E ST. MARYS GA  0521      70                N/A     1/ 5
FRYING PAN BUOY  0550   61 71   30/ 14/ 17 1006.2F   4/ 6   2/180/ 8
BUOY 41025       0550   59 76   10/ 19/ 23 1005.1    6/10   3/ 50/10
CAPE LOOKOUT NC  0500   54     360/  9/ 11 1006.9S
BUOY 41002       0550   67 70   20/  8/ 10 1004.5R   7/ 8   7/240/ 8
BUOY 41010       0520   80 78  250/ 16/ 17 1006.1F
ST AUGUSTINE FL  0600   75 67  270/  3/  3 1005.7F


$$



USA.gov is the U.S. government's official web portal to all federal, state and local government web resources and services.